Tracking 17921 objects as of 18-January-2017
HD Live streaming from Space Station
objects crossing your sky now

COSMOS 778

Track COSMOS 778 now!
10-day predictions
COSMOS 778 is classified as:


NORAD ID: 8419
Int'l Code: 1975-103A
Perigee: 990.3 km
Apogee: 990.3 km
Inclination: 83.0 °
Period: 104.8 minutes
Semi major axis: 7361 km
RCS: 2.3884 m2 (large)
Launch date: November 4, 1975
Source: Commonwealth of Independent States (former USSR) (CIS)
Launch site: PLESETSK MISSILE AND SPACE COMPLEX (PKMTR)
Your satellite tracking list
Your tracking list is empty





NASA's NSSDC Master Catalog

Two Line Element Set (TLE):
1 08419U 75103A   17018.18071799  .00000034  00000-0  19464-4 0  9992
2 08419  82.9765 307.2233 0023297  84.8821  24.6638 13.74575383 66619
Source of the keplerian elements: AFSPC